Weather History for Pratica di Mare, Italy

Change the Weather History Date:

Tuesday, November 6, 2012

  Actual Average Record
Temperature  
Mean Temperature 60 °F -  
Max Temperature 66 °F 62 °F 71 °F (2007)
Min Temperature 55 °F 46 °F 42 °F (2002)
Degree Days  
Heating Degree Days 4    
Growing Degree Days 10 (Base 50)    
Moisture  
Dew Point 54 °F    
Average Humidity 79    
Maximum Humidity 88    
Minimum Humidity 62    
Precipitation  
Precipitation 0.00 in 0.15 in - ()
Sea Level Pressure  
Sea Level Pressure 29.97 in    
Wind  
Wind Speed 6 mph ()    
Max Wind Speed 12 mph    
Max Gust Speed -    
Visibility 7.3 miles    
Events      
Averages and records for this station are not official NWS values.
T = Trace of Precipitation, MM = Missing Value Source: Averaged Metar Reports

Daily Weather History Graph

Daily Weather History Graph

Search for Another Location

Airport:

Trip Planner

Search our weather history database for the weather conditions in past years. The results will help you decide how hot, cold, wet, or windy it might be!

Date:

Astronomy

Nov. 06, 2012 Rise Set
Actual Time 6:48 AM CET 4:58 PM CET
Civil Twilight 6:19 AM CET 5:27 PM CET
Nautical Twilight 5:46 AM CET 6:00 PM CET
Astronomical Twilight 5:13 AM CET 6:33 PM CET
Moon 11:20 PM CET (11/6) 12:31 PM CET (11/6)
Length of Visible Light 11h 08m
Length of Day
10h 10m
Waning Gibbous, 56% of the Moon is Illuminated
Nov 6
Waning Gibbous
Nov 7
Last Quarter
Nov 13
New
Nov 20
First Quarter
Nov 28
Full

Hourly Weather History & Observations

Time (CET) Temp. Dew Point Humidity Pressure Visibility Wind Dir Wind Speed Gust Speed Precip Events Conditions
12:55 AM 60.8 °F 53.6 °F 77% 29.89 in 6.2 mi WNW 10.4 mph - N/A   Partly Cloudy
1:00 AM 61 °F 54 °F 72% 29.91 in 9 mi WNW 10.4 mph - -   Scattered Clouds
1:55 AM 60.8 °F 53.6 °F 77% 29.89 in 6.2 mi WNW 11.5 mph - N/A   Partly Cloudy
2:55 AM 59.0 °F 55.4 °F 88% 29.92 in 6.2 mi WNW 2.3 mph - N/A   Partly Cloudy
3:55 AM 57.2 °F 53.6 °F 88% 29.89 in - ENE 2.3 mph - N/A   Clear
4:00 AM 57 °F 54 °F 86% 29.91 in 9 mi ENE 2.3 mph - -  
4:55 AM 57.2 °F 53.6 °F 88% 29.89 in - East 3.5 mph - N/A   Clear
5:55 AM 57.2 °F 53.6 °F 88% 29.92 in - East 6.9 mph - N/A   Clear
7:00 AM 57 °F 53 °F 80% 29.94 in 9 mi East 6.9 mph - -   Mostly Cloudy
7:55 AM 57.2 °F 53.6 °F 88% 29.95 in 6.2 mi East 8.1 mph - N/A   Scattered Clouds
10:00 AM 63 °F 56 °F 71% 29.98 in 9 mi SE 6.9 mph - -   Scattered Clouds
10:55 AM 66.2 °F 55.4 °F 68% 29.98 in 6.2 mi SSE 4.6 mph - N/A   Scattered Clouds
12:55 PM 64.4 °F 55.4 °F 73% 29.98 in 6.2 mi West 9.2 mph - N/A   Scattered Clouds
1:00 PM 65 °F 55 °F 62% 29.98 in 12 mi West 9.2 mph - -   Partly Cloudy
1:55 PM 64.4 °F 53.6 °F 68% 29.98 in 6.2 mi WSW 9.2 mph - N/A   Scattered Clouds
2:55 PM 62.6 °F 51.8 °F 68% 29.98 in 6.2 mi WSW 11.5 mph - N/A   Scattered Clouds
4:00 PM 62 °F 53 °F 65% 29.99 in 11 mi 1.2 mph - -   Partly Cloudy
4:55 PM 60.8 °F 55.4 °F 82% 29.98 in 6.2 mi North 4.6 mph - N/A   Partly Cloudy
5:55 PM 57.2 °F 53.6 °F 88% 29.98 in 6.2 mi NNE 3.5 mph - N/A   Partly Cloudy
6:55 PM 57.2 °F 53.6 °F 88% 30.01 in 6.2 mi NNE 4.6 mph - N/A   Partly Cloudy
7:00 PM 58 °F 54 °F 83% 30.02 in 9 mi NNE 4.6 mph - -   Scattered Clouds
7:55 PM 57.2 °F 53.6 °F 88% 30.01 in 6.2 mi NNE 4.6 mph - N/A   Partly Cloudy
8:55 PM 57.2 °F 53.6 °F 88% 30.04 in 6.2 mi ESE 6.9 mph - N/A   Partly Cloudy
9:55 PM 57.2 °F 51.8 °F 82% 30.04 in 6.2 mi East 6.9 mph - N/A   Partly Cloudy
10:00 PM 58 °F 52 °F 75% 30.05 in 9 mi East 6.9 mph - -   Scattered Clouds
10:55 PM 59.0 °F 51.8 °F 77% 30.04 in 6.2 mi East 6.9 mph - N/A   Scattered Clouds
11:55 PM 59.0 °F 51.8 °F 77% 30.04 in 6.2 mi East 6.9 mph - N/A   Partly Cloudy